Location: Krasnoyarskiy Pitomnik
(51.1333°N, 71.6167°E)
Time: 22:34:01
(UTC+00:00)

A-11 Canister half - Pass Details

Date: 27 April 2024
Orbit: 1525 x 1683 km, 47.3° (Epoch: 19 May)

Event Time Altitude Azimuth Distance (km) Brightness Sun altitude
Rises 02:12:30 0° 264° (W) 4,882 11.0 20.4°
Reaches altitude 10° 02:15:37 10° 263° (W) 3,911 10.6 20.9°
Maximum altitude 02:25:38 73° 181° (S) 1,749 9.7 22.5°
Drops below altitude 10° 02:35:44 10° 100° (E) 3,943 13.2 24.0°
Sets 02:38:54 0° 99° (E) 4,923 13.1 24.5°
